TimeEST,TemperatureF,Dew PointF,Humidity,Sea Level PressureIn,VisibilityMPH,Wind Direction,Wind SpeedMPH,Gust SpeedMPH,PrecipitationIn,Events,Conditions,WindDirDegrees,DateUTC
12:54 AM,28.0,16.0,61,30.19,10.0,NNE,4.6,-,N/A,,Overcast,20,2013-12-31 05:54:00
1:54 AM,28.0,15.1,58,30.18,10.0,North,4.6,-,N/A,,Mostly Cloudy,10,2013-12-31 06:54:00
2:54 AM,27.0,15.1,61,30.18,10.0,NNE,3.5,-,N/A,,Overcast,20,2013-12-31 07:54:00
3:54 AM,27.0,15.1,61,30.17,10.0,NNE,3.5,-,N/A,,Overcast,20,2013-12-31 08:54:00
4:54 AM,27.0,15.1,61,30.17,10.0,NE,4.6,-,N/A,,Overcast,40,2013-12-31 09:54:00
5:54 AM,26.1,15.1,63,30.17,10.0,Calm,Calm,-,N/A,,Overcast,0,2013-12-31 10:54:00
6:54 AM,26.1,16.0,66,30.17,10.0,Calm,Calm,-,N/A,,Partly Cloudy,0,2013-12-31 11:54:00
7:54 AM,25.0,15.1,66,30.18,10.0,Calm,Calm,-,N/A,,Clear,0,2013-12-31 12:54:00
8:54 AM,27.0,16.0,63,30.17,10.0,Calm,Calm,-,N/A,,Clear,0,2013-12-31 13:54:00
9:54 AM,30.9,12.9,47,30.17,10.0,SW,5.8,-,N/A,,Clear,230,2013-12-31 14:54:00
10:54 AM,34.0,14.0,44,30.16,10.0,SW,8.1,-,N/A,,Clear,230,2013-12-31 15:54:00
11:54 AM,36.0,17.1,46,30.13,10.0,West,10.4,-,N/A,,Scattered Clouds,260,2013-12-31 16:54:00
12:54 PM,37.9,21.0,51,30.10,10.0,SW,9.2,20.7,N/A,,Mostly Cloudy,230,2013-12-31 17:54:00
1:54 PM,39.0,21.0,49,30.10,10.0,SW,13.8,-,N/A,,Clear,230,2013-12-31 18:54:00
2:54 PM,39.9,21.9,49,30.11,10.0,WSW,13.8,20.7,N/A,,Partly Cloudy,250,2013-12-31 19:54:00
3:54 PM,41.0,24.1,51,30.12,10.0,West,9.2,21.9,N/A,,Mostly Cloudy,270,2013-12-31 20:54:00
4:54 PM,37.9,25.0,60,30.14,10.0,West,13.8,-,N/A,,Partly Cloudy,280,2013-12-31 21:54:00
5:54 PM,36.0,24.1,62,30.19,10.0,WNW,11.5,-,N/A,,Clear,290,2013-12-31 22:54:00
6:54 PM,33.1,19.9,59,30.22,10.0,WNW,11.5,-,N/A,,Clear,300,2013-12-31 23:54:00
7:54 PM,32.0,16.0,52,30.26,10.0,WNW,9.2,-,N/A,,Clear,300,2014-01-01 00:54:00
8:54 PM,30.0,15.1,54,30.28,10.0,West,5.8,-,N/A,,Clear,280,2014-01-01 01:54:00
9:54 PM,28.9,16.0,58,30.30,10.0,West,4.6,-,N/A,,Clear,280,2014-01-01 02:54:00
10:54 PM,28.0,15.1,58,30.32,10.0,West,4.6,-,N/A,,Clear,280,2014-01-01 03:54:00
11:54 PM,26.1,15.1,63,30.34,10.0,West,4.6,-,N/A,,Clear,270,2014-01-01 04:54:00